Regional Weather Roundup
Issued by NWS

Home | Current Version | Previous Version | Text Only | Print | Product List | Glossary On
Versions: 1 2 3 4 5 6 7 8 9 10 11 12 13 14 15 16 17 18 19 20 21 22 23 24 25 26 27 28 29 30 31 32 33 34 35 36 37 38 39 40 41 42 43 44 45 46 47 48 49 50
732
ASUS43 KLSX 241107
RWRMO

WEATHER SUMMARY FOR MISSOURI
NATIONAL WEATHER SERVICE SPRINGFIELD MO
600 AM CDT TUE MAY 24 2016

NOTE: "FAIR" INDICATES FEW OR NO CLOUDS BELOW 12,000 FEET WITH NO
       SIGNIFICANT WEATHER AND/OR OBSTRUCTIONS TO VISIBILITY.
       CURRENT SKY AND/OR WEATHER CONDITIONS ARE NOT AVAILABLE FOR
       CHILLICOTHE AND FARMINGTON.

MOZ001>031-035>038-043-044-053-054-241200-
...NORTHERN AND WESTERN MISSOURI...

CITY           SKY/WX    TMP DP  RH WIND       PRES   REMARKS
KANSAS CTY INT CLOUDY    62  60  93 W3        29.92R
KANSAS C DTWN  CLOUDY    64  61  90 CALM      29.90R
LEE`S SUMMIT   MOCLDY    63  61  93 SE5       29.90F
ST JOSEPH      CLOUDY    64  61  90 SW13      29.88R
CHILLICOTHE      N/A     63  61  93 CALM      29.94R
KIRKSVILLE     CLEAR     59  57  93 W3        29.95R FOG

$$
MOZ066>068-077>081-088>096-101>105-241200-
...SOUTHWEST MISSOURI...

CITY           SKY/WX    TMP DP  RH WIND       PRES   REMARKS
SPRINGFIELD    CLOUDY    64  61  90 S10       29.95R
JOPLIN         PTCLDY    65  62  90 SE5       29.93R

$$
MOZ032>034-039>042-045>050-055>058-069>072-241200-
...CENTRAL MISSOURI...

CITY           SKY/WX    TMP DP  RH WIND       PRES   REMARKS
COLUMBIA       CLEAR     62  59  90 SE6       29.96R
JEFFERSON CITY CLEAR     61  58  90 SE3       29.95R
ROLLA          CLOUDY    64  58  80 S6        29.96R
SEDALIA        CLOUDY    63  60  90 SE7       29.95R
WHITEMAN AFB   MOCLDY    62  62 100 S7        29.92R
WARRENSBURG    TSTM      61  59  94 CALM      29.92S
OSAGE BEACH      N/A    N/A N/A N/A MISG        N/A

$$
MOZ051-052-059>065-241200-
...EAST CENTRAL MISSOURI...

CITY           SKY/WX    TMP DP  RH WIND       PRES   REMARKS
ST LOUIS INTL  CLOUDY    70  54  56 S6        29.98R
SPIRIT OF STL  CLOUDY    68  55  63 S3        29.96R
ST CHARLES     CLOUDY    61  57  87 NE3       29.96R

$$
MOZ072>076-082>087-097>100-106>115-241200-
...SOUTH CENTRAL AND SOUTHEAST MISSOURI...

CITY           SKY/WX    TMP DP  RH WIND       PRES   REMARKS
CAPE GIRARDEAU CLOUDY    64  58  80 SE3       29.99F
FARMINGTON     CLOUDY    62  59  90 CALM      30.00R
POPLAR BLUFF   PTCLDY    63  60  90 CALM      29.98S
WEST PLAINS    TSTM      61  58  90 NE5       30.01R

$$



USA.gov is the U.S. government's official web portal to all federal, state and local government web resources and services.